Simultaneous Nadir Overpasses (SNOs) Predictions

Prediction of SNOs between AQUA and METOP-B Satellite Orbit:

Table of predicted SNOs for the next 14.0 days since TLE Epoch: 1/28/2024
Index Date (AQUA) Time (AQUA) Lat,Lon (AQUA) SZA (AQUA ) Date (METOP-B) Time (METOP-B) Lat,Lon (METOP-B) SZA (METOP-B ) Distance(km) Time Diff (sec)
1 01/29/2024 17:17:26 -75.23, 97.47 86.84 01/29/2024 17:16:13 -75.25, 97.51 86.81 1.87 73
2 01/29/2024 18:06:51 75.28, -95.00 93.21 01/29/2024 18:06:52 75.29, -95.04 93.22 1.80 1
3 01/29/2024 18:56:18 -75.52, 71.96 86.54 01/29/2024 18:57:29 -75.52, 72.98 86.58 28.38 71
4 02/01/2024 09:29:14 -74.75,-144.18 88.09 02/01/2024 09:28:08 -74.69,-147.03 88.06 83.56 66
5 02/01/2024 10:18:49 75.29, 22.00 92.49 02/01/2024 10:18:35 75.30, 22.04 92.49 1.08 14
6 02/01/2024 11:08:12 -75.34,-170.47 87.48 02/01/2024 11:09:16 -75.34,-170.51 87.48 1.00 64
7 02/04/2024 02:30:46 75.28, 139.09 91.70 02/04/2024 02:30:19 75.30, 139.08 91.72 1.70 27
8 02/04/2024 03:20:09 -75.33, -53.38 88.27 02/04/2024 03:21:00 -75.34, -53.45 88.25 2.90 51
9 02/06/2024 18:42:42 75.29,-103.87 90.90 02/06/2024 18:42:03 75.28,-103.90 90.90 1.00 39
10 02/06/2024 19:32:05 -75.33, 63.66 89.07 02/06/2024 19:32:44 -75.34, 63.58 89.07 2.53 39
11 02/09/2024 10:54:37 75.32, 13.11 90.09 02/09/2024 10:53:46 75.31, 13.22 90.09 3.46 51
12 02/09/2024 11:44:00 -75.36,-179.35 89.88 02/09/2024 11:44:27 -75.36,-179.29 89.88 1.68 27



Historial Predications of SNOs between AQUA and METOP-B
